Home > Weather > Boise > Past weeks

Flag for USA Past Weather in Boise, Idaho, USA — Yesterday and Last 2 Weeks

Now
76 °F

Sunny.


Feels Like: 77 °F
Forecast: 67 / 100 °F
Wind: 5 mph from Southeast

Location: Boise Air Terminal

Current Time: Jul 27, 2016 at 9:31:38 AM

Latest Report: Jul 27, 2016 at 8:53 AM


Visibility: 6 mi

Pressure: 29.95 "Hg (27.25 "Hg at 822m altitude)

Humidity: 30%

Dew Point: 42 °F

Location of BoiseLocation

Past Weather in Boise — Graph

°F

Boise Temperature Yesterday

Maximum temperature yesterday: 99 °F (at 5:53 PM)
Minimum temperature yesterday: 68 °F (at 6:53 AM)
Average temperature yesterday: 84 °F

High & Low Weather Summary for the Past Weeks

 TemperatureHumidityPressure
High99 °F (Jul 21, 3:53 PM)77% (Jul 13, 6:53 AM)30.14 "Hg (Jul 13, 6:53 AM)
Low53 °F (Jul 13, 6:53 AM)8% (Jul 17, 3:53 PM)29.66 "Hg (Jul 17, 6:53 PM)
Average77 °F28%29.91 "Hg
* Reported Jul 12 7:53 AM — Jul 27 7:53 AM, Boise, Weather by CustomWeather, © 2016

Note: Actual official high and low records may vary slightly from our data, if they occured in-between our weather recording intervals... More about our weather records

Advertising

Boise Weather History for the Previous 24 Hours

Scroll right to see more
 ConditionsComfort  
Time TempWeatherWind HumidityBarometerVisibility
7:53 AM
Wed, Jul 27
72 °FClear.9 mph33%29.94 "Hg10 mi
6:53 AM69 °FClear.9 mph36%29.93 "Hg9 mi
5:53 AM69 °FClear.8 mph39%29.90 "Hg10 mi
4:53 AM68 °FClear.3 mph53%29.89 "Hg10 mi
3:53 AM70 °FClear.5 mph51%29.88 "Hg10 mi
2:53 AM72 °FClear.6 mph49%29.87 "Hg10 mi
1:53 AM73 °FClear.5 mph43%29.86 "Hg10 mi
12:53 AM77 °FClear.No wind35%29.85 "Hg10 mi
11:53 PM
Tue, Jul 26
80 °FClear.6 mph28%29.84 "Hg10 mi
10:53 PM86 °FSunny.No wind20%29.83 "Hg10 mi
9:53 PM88 °FSunny.6 mph21%29.81 "Hg10 mi
8:53 PM93 °FSunny.6 mph14%29.80 "Hg10 mi
7:53 PM97 °FSunny.12 mph12%29.80 "Hg10 mi
6:53 PM98 °FSunny.13 mph13%29.81 "Hg10 mi
5:53 PM99 °FSunny.15 mph12%29.81 "Hg10 mi
4:53 PM98 °FSunny.10 mph14%29.83 "Hg10 mi
3:53 PM98 °FSunny.16 mph15%29.85 "Hg10 mi
2:53 PM95 °FSunny.12 mph17%29.86 "Hg10 mi
1:53 PM93 °FSunny.6 mph16%29.88 "Hg10 mi
12:53 PM89 °FSunny.6 mph20%29.90 "Hg10 mi
11:53 AM85 °FSunny.5 mph24%29.91 "Hg10 mi
10:53 AM84 °FSunny.7 mph23%29.90 "Hg10 mi
9:53 AM81 °FSunny.6 mph21%29.90 "Hg10 mi
Weather by CustomWeather, © 2016

See weather overviewHow to use our weather pages